This demonstration page uses our WeatherBlox Daily Observations layout. Learn more.

Left ArrowRight Arrow

Hourly Observations for October 10, 2020

Temp ( °F °C ) Dew Point ( °F °C ) Humidity (%) Winds ( mph kmh ) Pressure ( in mb ) Visibility ( mi km ) Precip ( " mm )
12:15 am 00:15 Clear 66 19 63 17 88 88 S 10 17 29.96 1015 10 16 N/A
12:35 am 00:35 Clear 66 19 63 17 88 88 S 12 19 29.95 1014 10 16 N/A
12:55 am 00:55 Clear 66 19 63 17 88 88 S 13 20 29.95 1014 10 16 N/A
1:15 am 01:15 Clear 66 19 63 17 88 88 S 12 19 29.94 1014 10 16 N/A
1:35 am 01:35 Clear 64 18 63 17 94 94 SSW 10 17 29.95 1014 10 16 N/A
1:55 am 01:55 Clear 64 18 63 17 94 94 SSW 9 15 29.96 1015 10 16 N/A
2:15 am 02:15 Clear 64 18 63 17 94 94 SSW 7 11 29.95 1014 10 16 N/A
2:35 am 02:35 Clear 63 17 63 17 100 100 S 5 7 29.97 1015 10 16 N/A
2:55 am 02:55 Clear 63 17 63 17 100 100 S 6 9 29.97 1015 10 16 N/A
3:15 am 03:15 Clear 61 16 61 16 100 100 S 5 7 29.97 1015 10 16 N/A
3:35 am 03:35 Clear 61 16 61 16 100 100 S 7 11 29.97 1015 10 16 N/A
3:55 am 03:55 Clear 61 16 61 16 100 100 S 7 11 29.96 1015 10 16 N/A
4:15 am 04:15 Clear 61 16 61 16 100 100 S 6 9 29.96 1015 10 16 N/A
4:35 am 04:35 Clear 61 16 61 16 100 100 S 6 9 29.96 1015 10 16 N/A
4:55 am 04:55 Clear 61 16 61 16 100 100 S 6 9 29.96 1015 10 16 N/A
5:15 am 05:15 Partly Cloudy 59 15 59 15 100 100 S 3 6 29.97 1015 10 16 N/A
5:35 am 05:35 Partly Cloudy 59 15 59 15 100 100 S 5 7 29.97 1015 10 16 N/A
5:55 am 05:55 Partly Cloudy 59 15 59 15 100 100 S 5 7 29.97 1015 10 16 N/A
6:15 am 06:15 Mostly Cloudy 59 15 59 15 100 100 S 6 9 29.98 1015 10 16 N/A
6:35 am 06:35 Partly Cloudy 59 15 59 15 100 100 S 6 9 29.98 1015 10 16 N/A
6:55 am 06:55 Clear 59 15 59 15 100 100 S 6 9 29.98 1015 10 16 N/A
7:15 am 07:15 Partly Cloudy 59 15 59 15 100 100 S 5 7 29.98 1015 10 16 N/A
7:35 am 07:35 Partly Cloudy 57 14 57 14 100 100 S 6 9 29.99 1015 10 16 N/A
7:55 am 07:55 Partly Cloudy 57 14 57 14 100 100 S 6 9 29.99 1015 10 16 N/A
8:15 am 08:15 Sunny 59 15 59 15 100 100 SSE 6 9 29.98 1015 10 16 N/A
8:35 am 08:35 Sunny 59 15 59 15 100 100 S 3 6 29.98 1015 10 16 N/A
8:55 am 08:55 Sunny 59 15 59 15 100 100 S 5 7 29.98 1015 10 16 N/A
9:15 am 09:15 Partly Cloudy 61 16 61 16 100 100 S 7 11 29.99 1016 10 16 N/A
9:35 am 09:35 Sunny 63 17 63 17 100 100 S 8 13 29.98 1015 10 16 N/A
9:55 am 09:55 Sunny 64 18 64 18 100 100 SSW 9 15 29.97 1015 10 16 N/A
10:15 am 10:15 Partly Cloudy 66 19 66 19 100 100 SSW 10 17 29.97 1015 10 16 N/A
10:35 am 10:35 Mostly Cloudy 68 20 68 20 100 100 SSW 13 20 29.97 1015 10 16 N/A
10:55 am 10:55 Cloudy 70 21 68 20 94 94 SSW 9 15 29.97 1015 10 16 N/A
11:15 am 11:15 Cloudy 70 21 68 20 94 94 SSW 13 20 29.97 1015 10 16 N/A
11:35 am 11:35 Cloudy 70 21 68 20 94 94 SSW 15 24 29.97 1015 10 16 N/A
11:55 am 11:55 Mostly Cloudy 72 22 68 20 88 88 SW 12 19 29.96 1015 10 16 N/A
12:15 pm 12:15 Mostly Cloudy 72 22 68 20 88 88 SW 10 17 29.96 1015 10 16 N/A
12:35 pm 12:35 Mostly Cloudy 73 23 68 20 83 83 SSW 15 24 29.96 1015 10 16 N/A
12:55 pm 12:55 Partly Cloudy 73 23 68 20 83 83 WSW 9 15 29.96 1015 10 16 N/A
1:15 pm 13:15 Partly Cloudy 73 23 68 20 83 83 SSW 7 11 29.95 1014 10 16 N/A
1:55 pm 13:55 Sunny 75 24 68 20 78 78 SW 7 11 29.93 1013 10 16 N/A
2:15 pm 14:15 Sunny 77 25 68 20 74 74 SSW 9 15 29.92 1013 10 16 N/A
2:35 pm 14:35 Sunny 77 25 68 20 74 74 SSW 10 17 29.92 1013 10 16 N/A
2:55 pm 14:55 Sunny 77 25 68 20 74 74 SSW 9 15 29.91 1013 10 16 N/A
3:15 pm 15:15 Sunny 77 25 68 20 74 74 SSW 12 19 29.90 1013 10 16 N/A
3:35 pm 15:35 Partly Cloudy 77 25 68 20 74 74 SSW 10 17 29.90 1013 10 16 N/A
3:55 pm 15:55 Partly Cloudy 77 25 68 20 74 74 SSW 12 19 29.89 1012 10 16 N/A
4:15 pm 16:15 Partly Cloudy 77 25 68 20 74 74 SSW 10 17 29.89 1012 10 16 N/A
4:35 pm 16:35 Mostly Cloudy 77 25 68 20 74 74 SW 9 15 29.89 1012 10 16 N/A
4:55 pm 16:55 Mostly Cloudy 77 25 68 20 74 74 SSW 7 11 29.89 1012 10 16 N/A
5:15 pm 17:15 Partly Cloudy 75 24 68 20 78 78 SW 3 6 29.89 1012 10 16 N/A
5:35 pm 17:35 Mostly Cloudy 75 24 68 20 78 78 SSW 3 6 29.89 1012 10 16 N/A
5:55 pm 17:55 Partly Cloudy 75 24 68 20 78 78 SW 5 7 29.89 1012 10 16 N/A
6:15 pm 18:15 Sunny 75 24 68 20 78 78 N N/A 29.89 1012 10 16 N/A
6:35 pm 18:35 Sunny 75 24 68 20 78 78 N N/A 29.89 1012 10 16 N/A
6:55 pm 18:55 Sunny 73 23 68 20 83 83 N N/A 29.90 1012 10 16 N/A
7:15 pm 19:15 Clear 73 23 68 20 83 83 N N/A 29.91 1013 10 16 N/A
7:35 pm 19:35 Partly Cloudy 68 20 66 19 94 94 SE 3 6 29.92 1013 5 8 N/A
7:55 pm 19:55 Partly Cloudy 68 20 66 19 94 94 N N/A 29.92 1013 7 11 N/A
8:15 pm 20:15 Partly Cloudy 64 18 64 18 100 100 SE 3 6 29.92 1013 4 6 N/A
8:35 pm 20:35 Mostly Cloudy 70 21 68 20 94 94 SSE 6 9 29.92 1013 10 16 N/A
8:55 pm 20:55 Partly Cloudy 68 20 68 20 100 100 S 3 6 29.93 1013 10 16 N/A
9:15 pm 21:15 Clear 68 20 68 20 100 100 N N/A 29.92 1013 10 16 N/A
9:35 pm 21:35 Clear 66 19 66 19 100 100 SSE 5 7 29.92 1013 10 16 N/A
9:55 pm 21:55 Clear 66 19 66 19 100 100 SSE 3 6 29.92 1013 10 16 N/A
10:15 pm 22:15 Clear 64 18 64 18 100 100 N N/A 29.93 1014 10 16 N/A
10:35 pm 22:35 Clear 63 17 63 17 100 100 N N/A 29.95 1014 10 16 N/A
10:55 pm 22:55 Clear 61 16 61 16 100 100 N N/A 29.95 1014 10 16 N/A
11:15 pm 23:15 Clear 61 16 61 16 100 100 N N/A 29.95 1014 10 16 N/A
11:35 pm 23:35 Clear 61 16 61 16 100 100 N N/A 29.95 1014 10 16 N/A
11:55 pm 23:55 Clear 59 15 59 15 100 100 N N/A 29.94 1014 10 16 N/A

Powered by AerisWeather